Year,Month,Day,Hour,Minute,Value (Times are PST for temperature in C)
2015,07,04,00,00,19.60
2015,07,04,00,01,19.60
2015,07,04,00,02,19.60
2015,07,04,00,03,19.60
2015,07,04,00,04,19.60
2015,07,04,00,05,19.50
2015,07,04,00,06,19.50
2015,07,04,00,07,19.50
2015,07,04,00,08,19.50
2015,07,04,00,09,19.40
2015,07,04,00,10,19.40
2015,07,04,00,11,19.40
2015,07,04,00,12,19.40
2015,07,04,00,13,19.40
2015,07,04,00,14,19.40
2015,07,04,00,15,19.40
2015,07,04,00,16,19.40
2015,07,04,00,17,19.40
2015,07,04,00,18,19.30
2015,07,04,00,19,19.30
2015,07,04,00,20,19.30
2015,07,04,00,21,19.30
2015,07,04,00,22,19.30
2015,07,04,00,23,19.20
2015,07,04,00,24,19.20
2015,07,04,00,25,19.20
2015,07,04,00,26,19.10
2015,07,04,00,27,19.10
2015,07,04,00,28,19.10
2015,07,04,00,29,19.00
2015,07,04,00,30,19.00
2015,07,04,00,31,18.90
2015,07,04,00,32,18.90
2015,07,04,00,33,18.90
2015,07,04,00,34,18.90
2015,07,04,00,35,19.00
2015,07,04,00,36,19.00
2015,07,04,00,37,19.10
2015,07,04,00,38,19.10
2015,07,04,00,39,19.20
2015,07,04,00,40,19.20
2015,07,04,00,41,19.30
2015,07,04,00,42,19.30
2015,07,04,00,43,19.30
2015,07,04,00,44,19.40
2015,07,04,00,45,19.30
2015,07,04,00,46,19.40
2015,07,04,00,47,19.30
2015,07,04,00,48,19.30
2015,07,04,00,49,19.30
2015,07,04,00,50,19.30
2015,07,04,00,51,19.30
2015,07,04,00,52,19.20
2015,07,04,00,53,19.20
2015,07,04,00,54,19.20
2015,07,04,00,55,19.20
2015,07,04,00,56,19.10
2015,07,04,00,57,19.10
2015,07,04,00,58,19.10
2015,07,04,00,59,19.00
2015,07,04,01,00,19.00
2015,07,04,01,01,18.90
2015,07,04,01,02,18.90
2015,07,04,01,03,18.80
2015,07,04,01,04,18.80
2015,07,04,01,05,18.70
2015,07,04,01,06,18.70
2015,07,04,01,07,18.70
2015,07,04,01,08,18.60
2015,07,04,01,09,18.60
2015,07,04,01,10,18.60
2015,07,04,01,11,18.60
2015,07,04,01,12,18.60
2015,07,04,01,13,18.50
2015,07,04,01,14,18.50
2015,07,04,01,15,18.50
2015,07,04,01,16,18.50
2015,07,04,01,17,18.50
2015,07,04,01,18,18.40
2015,07,04,01,19,18.40
2015,07,04,01,20,18.40
2015,07,04,01,21,18.40
2015,07,04,01,22,18.40
2015,07,04,01,23,18.40
2015,07,04,01,24,18.40
2015,07,04,01,25,18.40
2015,07,04,01,26,18.30
2015,07,04,01,27,18.30
2015,07,04,01,28,18.20
2015,07,04,01,29,18.20
2015,07,04,01,30,18.20
2015,07,04,01,31,18.20
2015,07,04,01,32,18.10
2015,07,04,01,33,18.10
2015,07,04,01,34,18.10
2015,07,04,01,35,18.10
2015,07,04,01,36,18.00
2015,07,04,01,37,18.00
2015,07,04,01,38,18.00
2015,07,04,01,39,17.90
2015,07,04,01,40,17.90
2015,07,04,01,41,17.90
2015,07,04,01,42,17.90
2015,07,04,01,43,17.80
2015,07,04,01,44,17.80
2015,07,04,01,45,17.80
2015,07,04,01,46,17.80
2015,07,04,01,47,17.70
2015,07,04,01,48,17.70
2015,07,04,01,49,17.70
2015,07,04,01,50,17.70
2015,07,04,01,51,17.60
2015,07,04,01,52,17.60
2015,07,04,01,53,17.60
2015,07,04,01,54,17.50
2015,07,04,01,55,17.50
2015,07,04,01,56,17.40
2015,07,04,01,57,17.40
2015,07,04,01,58,17.40
2015,07,04,01,59,17.30
2015,07,04,02,00,17.30
2015,07,04,02,01,17.30
2015,07,04,02,02,17.30
2015,07,04,02,03,17.20
2015,07,04,02,04,17.20
2015,07,04,02,05,17.10
2015,07,04,02,06,17.10
2015,07,04,02,07,17.10
2015,07,04,02,08,17.00
2015,07,04,02,09,17.00
2015,07,04,02,10,16.90
2015,07,04,02,11,16.90
2015,07,04,02,12,16.90
2015,07,04,02,13,16.80
2015,07,04,02,14,16.80
2015,07,04,02,15,16.80
2015,07,04,02,16,16.80
2015,07,04,02,17,16.70
2015,07,04,02,18,16.70
2015,07,04,02,19,16.70
2015,07,04,02,20,16.70
2015,07,04,02,21,16.70
2015,07,04,02,22,16.60
2015,07,04,02,23,16.60
2015,07,04,02,24,16.60
2015,07,04,02,25,16.50
2015,07,04,02,26,16.50
2015,07,04,02,27,16.40
2015,07,04,02,28,16.40
2015,07,04,02,29,16.40
2015,07,04,02,30,16.30
2015,07,04,02,31,16.30
2015,07,04,02,32,16.30
2015,07,04,02,33,16.20
2015,07,04,02,34,16.20
2015,07,04,02,35,16.20
2015,07,04,02,36,16.10
2015,07,04,02,37,16.10
2015,07,04,02,38,16.10
2015,07,04,02,39,16.00
2015,07,04,02,40,16.00
2015,07,04,02,41,16.00
2015,07,04,02,42,16.00
2015,07,04,02,43,16.00
2015,07,04,02,44,15.90
2015,07,04,02,45,15.90
2015,07,04,02,46,15.90
2015,07,04,02,47,15.90
2015,07,04,02,48,15.90
2015,07,04,02,49,15.90
2015,07,04,02,50,15.90
2015,07,04,02,51,15.90
2015,07,04,02,52,15.90
2015,07,04,02,53,15.80
2015,07,04,02,54,15.80
2015,07,04,02,55,15.80
2015,07,04,02,56,15.80
2015,07,04,02,57,15.90
2015,07,04,02,58,15.90
2015,07,04,02,59,15.90
2015,07,04,03,00,15.90
2015,07,04,03,01,15.90
2015,07,04,03,02,15.90
2015,07,04,03,03,15.90
2015,07,04,03,04,15.90
2015,07,04,03,05,15.90
2015,07,04,03,06,15.90
2015,07,04,03,07,15.90
2015,07,04,03,08,15.90
2015,07,04,03,09,16.00
2015,07,04,03,10,16.00
2015,07,04,03,11,16.00
2015,07,04,03,12,16.00
2015,07,04,03,13,16.00
2015,07,04,03,14,16.00
2015,07,04,03,15,16.00
2015,07,04,03,16,16.00
2015,07,04,03,17,16.00
2015,07,04,03,18,16.00
2015,07,04,03,19,16.00
2015,07,04,03,20,16.00
2015,07,04,03,21,16.00
2015,07,04,03,22,16.00
2015,07,04,03,23,16.00
2015,07,04,03,24,16.00
2015,07,04,03,25,16.00
2015,07,04,03,26,16.00
2015,07,04,03,27,16.00
2015,07,04,03,28,16.00
2015,07,04,03,29,16.00
2015,07,04,03,30,16.00
2015,07,04,03,31,16.10
2015,07,04,03,32,16.10
2015,07,04,03,33,16.10
2015,07,04,03,34,16.10
2015,07,04,03,35,16.10
2015,07,04,03,36,16.10
2015,07,04,03,37,16.10
2015,07,04,03,38,16.10
2015,07,04,03,39,16.10
2015,07,04,03,40,16.00
2015,07,04,03,41,16.00
2015,07,04,03,42,16.00
2015,07,04,03,43,16.00
2015,07,04,03,44,15.90
2015,07,04,03,45,15.90
2015,07,04,03,46,15.90
2015,07,04,03,47,15.90
2015,07,04,03,48,15.90
2015,07,04,03,49,15.90
2015,07,04,03,50,15.90
2015,07,04,03,51,15.90
2015,07,04,03,52,15.90
2015,07,04,03,53,15.90
2015,07,04,03,54,15.90
2015,07,04,03,55,16.00
2015,07,04,03,56,16.00
2015,07,04,03,57,16.10
2015,07,04,03,58,16.10
2015,07,04,03,59,16.10
2015,07,04,04,00,16.10
2015,07,04,04,01,16.10
2015,07,04,04,02,16.10
2015,07,04,04,03,16.10
2015,07,04,04,04,16.20
2015,07,04,04,05,16.20
2015,07,04,04,06,16.20
2015,07,04,04,07,16.20
2015,07,04,04,08,16.20
2015,07,04,04,09,16.20
2015,07,04,04,10,16.20
2015,07,04,04,11,16.20
2015,07,04,04,12,16.20
2015,07,04,04,13,16.20
2015,07,04,04,14,16.20
2015,07,04,04,15,16.20
2015,07,04,04,16,16.20
2015,07,04,04,17,16.20
2015,07,04,04,18,16.20
2015,07,04,04,19,16.20
2015,07,04,04,20,16.10
2015,07,04,04,21,16.10
2015,07,04,04,22,16.10
2015,07,04,04,23,16.10
2015,07,04,04,24,16.00
2015,07,04,04,25,16.00
2015,07,04,04,26,15.90
2015,07,04,04,27,15.90
2015,07,04,04,28,15.90
2015,07,04,04,29,15.80
2015,07,04,04,30,15.80
2015,07,04,04,31,15.80
2015,07,04,04,32,15.70
2015,07,04,04,33,15.70
2015,07,04,04,34,15.60
2015,07,04,04,35,15.60
2015,07,04,04,36,15.60
2015,07,04,04,37,15.50
2015,07,04,04,38,15.50
2015,07,04,04,39,15.40
2015,07,04,04,40,15.40
2015,07,04,04,41,15.40
2015,07,04,04,42,15.40
2015,07,04,04,43,15.30
2015,07,04,04,44,15.30
2015,07,04,04,45,15.30
2015,07,04,04,46,15.30
2015,07,04,04,47,15.20
2015,07,04,04,48,15.20
2015,07,04,04,49,15.20
2015,07,04,04,50,15.20
2015,07,04,04,51,15.10
2015,07,04,04,52,15.10
2015,07,04,04,53,15.10
2015,07,04,04,54,15.10
2015,07,04,04,55,15.10
2015,07,04,04,56,15.00
2015,07,04,04,57,15.00
2015,07,04,04,58,15.00
2015,07,04,04,59,15.00
2015,07,04,05,00,15.00
2015,07,04,05,01,15.00
2015,07,04,05,02,15.00
2015,07,04,05,03,15.00
2015,07,04,05,04,15.00
2015,07,04,05,05,15.00
2015,07,04,05,06,15.00
2015,07,04,05,07,15.00
2015,07,04,05,08,15.00
2015,07,04,05,09,15.00
2015,07,04,05,10,15.00
2015,07,04,05,11,15.00
2015,07,04,05,12,15.00
2015,07,04,05,13,15.00
2015,07,04,05,14,15.00
2015,07,04,05,15,15.00
2015,07,04,05,16,15.00
2015,07,04,05,17,15.00
2015,07,04,05,18,15.00
2015,07,04,05,19,15.00
2015,07,04,05,20,15.00
2015,07,04,05,21,15.00
2015,07,04,05,22,15.00
2015,07,04,05,23,15.00
2015,07,04,05,24,15.00
2015,07,04,05,25,14.90
2015,07,04,05,26,14.90
2015,07,04,05,27,14.80
2015,07,04,05,28,14.80
2015,07,04,05,29,14.80
2015,07,04,05,30,14.80
2015,07,04,05,31,14.70
2015,07,04,05,32,14.70
2015,07,04,05,33,14.70
2015,07,04,05,34,14.70
2015,07,04,05,35,14.70
2015,07,04,05,36,14.70
2015,07,04,05,37,14.70
2015,07,04,05,38,14.70
2015,07,04,05,39,14.70
2015,07,04,05,40,14.60
2015,07,04,05,41,14.60
2015,07,04,05,42,14.60
2015,07,04,05,43,14.60
2015,07,04,05,44,14.60
2015,07,04,05,45,14.60
2015,07,04,05,46,14.60
2015,07,04,05,47,14.60
2015,07,04,05,48,14.60
2015,07,04,05,49,14.50
2015,07,04,05,50,14.50
2015,07,04,05,51,14.50
2015,07,04,05,52,14.50
2015,07,04,05,53,14.50
2015,07,04,05,54,14.50
2015,07,04,05,55,14.50
2015,07,04,05,56,14.40
2015,07,04,05,57,14.40
2015,07,04,05,58,14.40
2015,07,04,05,59,14.40
2015,07,04,06,00,14.40
2015,07,04,06,01,14.40
2015,07,04,06,02,14.40
2015,07,04,06,03,14.40
2015,07,04,06,04,14.40
2015,07,04,06,05,14.40
2015,07,04,06,06,14.40
2015,07,04,06,07,14.40
2015,07,04,06,08,14.40
2015,07,04,06,09,14.40
2015,07,04,06,10,14.40
2015,07,04,06,11,14.50
2015,07,04,06,12,14.50
2015,07,04,06,13,14.50
2015,07,04,06,14,14.50
2015,07,04,06,15,14.50
2015,07,04,06,16,14.50
2015,07,04,06,17,14.50
2015,07,04,06,18,14.50
2015,07,04,06,19,14.50
2015,07,04,06,20,14.50
2015,07,04,06,21,14.60
2015,07,04,06,22,14.60
2015,07,04,06,23,14.60
2015,07,04,06,24,14.60
2015,07,04,06,25,14.60
2015,07,04,06,26,14.60
2015,07,04,06,27,14.60
2015,07,04,06,28,14.60
2015,07,04,06,29,14.60
2015,07,04,06,30,14.60
2015,07,04,06,31,14.60
2015,07,04,06,32,14.60
2015,07,04,06,33,14.60
2015,07,04,06,34,14.60
2015,07,04,06,35,14.70
2015,07,04,06,36,14.70
2015,07,04,06,37,14.70
2015,07,04,06,38,14.70
2015,07,04,06,39,14.70
2015,07,04,06,40,14.70
2015,07,04,06,41,14.70
2015,07,04,06,42,14.80
2015,07,04,06,43,14.80
2015,07,04,06,44,14.80
2015,07,04,06,45,14.80
2015,07,04,06,46,14.80
2015,07,04,06,47,14.80
2015,07,04,06,48,14.80
2015,07,04,06,49,14.80
2015,07,04,06,50,14.80
2015,07,04,06,51,14.90
2015,07,04,06,52,14.90
2015,07,04,06,53,14.90
2015,07,04,06,54,15.00
2015,07,04,06,55,15.00
2015,07,04,06,56,15.00
2015,07,04,06,57,15.00
2015,07,04,06,58,15.00
2015,07,04,06,59,15.00
2015,07,04,07,00,15.00
2015,07,04,07,01,15.00
2015,07,04,07,02,15.00
2015,07,04,07,03,15.00
2015,07,04,07,04,15.00
2015,07,04,07,05,15.00
2015,07,04,07,06,15.00
2015,07,04,07,07,15.00
2015,07,04,07,08,15.00
2015,07,04,07,09,15.00
2015,07,04,07,10,15.10
2015,07,04,07,11,15.10
2015,07,04,07,12,15.20
2015,07,04,07,13,15.20
2015,07,04,07,14,15.30
2015,07,04,07,15,15.30
2015,07,04,07,16,15.30
2015,07,04,07,17,15.40
2015,07,04,07,18,15.50
2015,07,04,07,19,15.50
2015,07,04,07,20,15.60
2015,07,04,07,21,15.70
2015,07,04,07,22,15.70
2015,07,04,07,23,15.80
2015,07,04,07,24,15.80
2015,07,04,07,25,15.90
2015,07,04,07,26,16.00
2015,07,04,07,27,16.00
2015,07,04,07,28,16.10
2015,07,04,07,29,16.10
2015,07,04,07,30,16.20
2015,07,04,07,31,16.20
2015,07,04,07,32,16.20
2015,07,04,07,33,16.30
2015,07,04,07,34,16.30
2015,07,04,07,35,16.40
2015,07,04,07,36,16.40
2015,07,04,07,37,16.50
2015,07,04,07,38,16.50
2015,07,04,07,39,16.60
2015,07,04,07,40,16.70
2015,07,04,07,41,16.70
2015,07,04,07,42,16.80
2015,07,04,07,43,16.80
2015,07,04,07,44,16.90
2015,07,04,07,45,16.90
2015,07,04,07,46,17.00
2015,07,04,07,47,17.00
2015,07,04,07,48,17.10
2015,07,04,07,49,17.10
2015,07,04,07,50,17.20
2015,07,04,07,51,17.20
2015,07,04,07,52,17.30
2015,07,04,07,53,17.30
2015,07,04,07,54,17.40
2015,07,04,07,55,17.40
2015,07,04,07,56,17.40
2015,07,04,07,57,17.50
2015,07,04,07,58,17.60
2015,07,04,07,59,17.70
2015,07,04,08,00,17.80
2015,07,04,08,01,18.00
2015,07,04,08,02,18.20
2015,07,04,08,03,18.30
2015,07,04,08,04,18.50
2015,07,04,08,05,18.60
2015,07,04,08,06,18.80
2015,07,04,08,07,18.90
2015,07,04,08,08,19.00
2015,07,04,08,09,19.10
2015,07,04,08,10,19.20
2015,07,04,08,11,19.30
2015,07,04,08,12,19.40
2015,07,04,08,13,19.60
2015,07,04,08,14,19.60
2015,07,04,08,15,19.70
2015,07,04,08,16,19.80
2015,07,04,08,17,19.80
2015,07,04,08,18,19.90
2015,07,04,08,19,20.00
2015,07,04,08,20,20.10
2015,07,04,08,21,20.20
2015,07,04,08,22,20.30
2015,07,04,08,23,20.30
2015,07,04,08,24,20.30
2015,07,04,08,25,20.30
2015,07,04,08,26,20.40
2015,07,04,08,27,20.40
2015,07,04,08,28,20.40
2015,07,04,08,29,20.40
2015,07,04,08,30,20.40
2015,07,04,08,31,20.40
2015,07,04,08,32,20.40
2015,07,04,08,33,20.50
2015,07,04,08,34,20.50
2015,07,04,08,35,20.50
2015,07,04,08,36,20.60
2015,07,04,08,37,20.60
2015,07,04,08,38,20.60
2015,07,04,08,39,20.60
2015,07,04,08,40,20.60
2015,07,04,08,41,20.60
2015,07,04,08,42,20.70
2015,07,04,08,43,20.70
2015,07,04,08,44,20.80
2015,07,04,08,45,20.80
2015,07,04,08,46,20.80
2015,07,04,08,47,20.80
2015,07,04,08,48,20.90
2015,07,04,08,49,21.00
2015,07,04,08,50,21.10
2015,07,04,08,51,21.10
2015,07,04,08,52,21.20
2015,07,04,08,53,21.20
2015,07,04,08,54,21.20
2015,07,04,08,55,21.30
2015,07,04,08,56,21.30
2015,07,04,08,57,21.30
2015,07,04,08,58,21.30
2015,07,04,08,59,21.30
2015,07,04,09,00,21.30
2015,07,04,09,01,21.40
2015,07,04,09,02,21.40
2015,07,04,09,03,21.50
2015,07,04,09,04,21.60
2015,07,04,09,05,21.60
2015,07,04,09,06,21.70
2015,07,04,09,07,21.80
2015,07,04,09,08,21.80
2015,07,04,09,09,21.80
2015,07,04,09,10,21.80
2015,07,04,09,11,21.80
2015,07,04,09,12,21.70
2015,07,04,09,13,21.60
2015,07,04,09,14,21.50
2015,07,04,09,15,21.40
2015,07,04,09,16,21.30
2015,07,04,09,17,21.30
2015,07,04,09,18,21.20
2015,07,04,09,19,21.20
2015,07,04,09,20,21.10
2015,07,04,09,21,21.10
2015,07,04,09,22,21.10
2015,07,04,09,23,21.20
2015,07,04,09,24,21.20
2015,07,04,09,25,21.30
2015,07,04,09,26,21.30
2015,07,04,09,27,21.40
2015,07,04,09,28,21.40
2015,07,04,09,29,21.40
2015,07,04,09,30,21.50
2015,07,04,09,31,21.50
2015,07,04,09,32,21.50
2015,07,04,09,33,21.50
2015,07,04,09,34,21.60
2015,07,04,09,35,21.70
2015,07,04,09,36,21.70
2015,07,04,09,37,21.70
2015,07,04,09,38,21.60
2015,07,04,09,39,21.60
2015,07,04,09,40,21.60
2015,07,04,09,41,21.60
2015,07,04,09,42,21.50
2015,07,04,09,43,21.50
2015,07,04,09,44,21.40
2015,07,04,09,45,21.40
2015,07,04,09,46,21.40
2015,07,04,09,47,21.40
2015,07,04,09,48,21.50
2015,07,04,09,49,21.50
2015,07,04,09,50,21.50
2015,07,04,09,51,21.60
2015,07,04,09,52,21.60
2015,07,04,09,53,21.70
2015,07,04,09,54,21.70
2015,07,04,09,55,21.70
2015,07,04,09,56,21.70
2015,07,04,09,57,21.70
2015,07,04,09,58,21.80
2015,07,04,09,59,21.80
2015,07,04,10,00,21.80
2015,07,04,10,01,21.90
2015,07,04,10,02,21.90
2015,07,04,10,03,21.80
2015,07,04,10,04,21.80
2015,07,04,10,05,21.70
2015,07,04,10,06,21.50
2015,07,04,10,07,21.50
2015,07,04,10,08,21.40
2015,07,04,10,09,21.50
2015,07,04,10,10,21.50
2015,07,04,10,11,21.40
2015,07,04,10,12,21.50
2015,07,04,10,13,21.50
2015,07,04,10,14,21.50
2015,07,04,10,15,21.50
2015,07,04,10,16,21.50
2015,07,04,10,17,21.50
2015,07,04,10,18,21.50
2015,07,04,10,19,21.40
2015,07,04,10,20,21.40
2015,07,04,10,21,21.40
2015,07,04,10,22,21.40
2015,07,04,10,23,21.50
2015,07,04,10,24,21.50
2015,07,04,10,25,21.60
2015,07,04,10,26,21.60
2015,07,04,10,27,21.60
2015,07,04,10,28,21.60
2015,07,04,10,29,21.60
2015,07,04,10,30,21.60
2015,07,04,10,31,21.70
2015,07,04,10,32,21.70
2015,07,04,10,33,21.80
2015,07,04,10,34,21.80
2015,07,04,10,35,21.80
2015,07,04,10,36,21.90
2015,07,04,10,37,22.00
2015,07,04,10,38,22.00
2015,07,04,10,39,22.00
2015,07,04,10,40,22.10
2015,07,04,10,41,22.10
2015,07,04,10,42,22.00
2015,07,04,10,43,22.00
2015,07,04,10,44,22.00
2015,07,04,10,45,22.00
2015,07,04,10,46,22.10
2015,07,04,10,47,22.10
2015,07,04,10,48,22.10
2015,07,04,10,49,22.00
2015,07,04,10,50,21.90
2015,07,04,10,51,21.90
2015,07,04,10,52,21.90
2015,07,04,10,53,22.00
2015,07,04,10,54,22.00
2015,07,04,10,55,22.00
2015,07,04,10,56,22.10
2015,07,04,10,57,22.10
2015,07,04,10,58,22.20
2015,07,04,10,59,22.20
2015,07,04,11,00,22.20
2015,07,04,11,01,22.20
2015,07,04,11,02,22.10
2015,07,04,11,03,22.00
2015,07,04,11,04,22.00
2015,07,04,11,05,22.00
2015,07,04,11,06,22.00
2015,07,04,11,07,22.10
2015,07,04,11,08,22.00
2015,07,04,11,09,22.00
2015,07,04,11,10,22.00
2015,07,04,11,11,22.00
2015,07,04,11,12,22.00
2015,07,04,11,13,22.10
2015,07,04,11,14,22.20
2015,07,04,11,15,22.20
2015,07,04,11,16,22.20
2015,07,04,11,17,22.20
2015,07,04,11,18,22.20
2015,07,04,11,19,22.10
2015,07,04,11,20,22.10
2015,07,04,11,21,22.10
2015,07,04,11,22,22.10
2015,07,04,11,23,22.20
2015,07,04,11,24,22.20
2015,07,04,11,25,22.20
2015,07,04,11,26,22.10
2015,07,04,11,27,22.10
2015,07,04,11,28,22.00
2015,07,04,11,29,21.90
2015,07,04,11,30,21.90
2015,07,04,11,31,21.90
2015,07,04,11,32,21.90
2015,07,04,11,33,21.90
2015,07,04,11,34,21.90
2015,07,04,11,35,22.00
2015,07,04,11,36,22.00
2015,07,04,11,37,22.10
2015,07,04,11,38,22.10
2015,07,04,11,39,22.10
2015,07,04,11,40,22.00
2015,07,04,11,41,21.90
2015,07,04,11,42,21.90
2015,07,04,11,43,22.00
2015,07,04,11,44,22.00
2015,07,04,11,45,22.10
2015,07,04,11,46,22.10
2015,07,04,11,47,22.10
2015,07,04,11,48,22.10
2015,07,04,11,49,22.30
2015,07,04,11,50,22.40
2015,07,04,11,51,22.40
2015,07,04,11,52,22.40
2015,07,04,11,53,22.40
2015,07,04,11,54,22.30
2015,07,04,11,55,22.30
2015,07,04,11,56,22.30
2015,07,04,11,57,22.40
2015,07,04,11,58,22.50
2015,07,04,11,59,22.60
2015,07,04,12,00,22.60
2015,07,04,12,01,22.70
2015,07,04,12,02,22.70
2015,07,04,12,03,22.80
2015,07,04,12,04,22.90
2015,07,04,12,05,22.90
2015,07,04,12,06,23.00
2015,07,04,12,07,23.10
2015,07,04,12,08,23.20
2015,07,04,12,09,23.30
2015,07,04,12,10,23.40
2015,07,04,12,11,23.30
2015,07,04,12,12,23.40
2015,07,04,12,13,23.30
2015,07,04,12,14,23.30
2015,07,04,12,15,23.30
2015,07,04,12,16,23.40
2015,07,04,12,17,23.50
2015,07,04,12,18,23.60
2015,07,04,12,19,23.70
2015,07,04,12,20,23.80
2015,07,04,12,21,23.80
2015,07,04,12,22,23.90
2015,07,04,12,23,24.00
2015,07,04,12,24,24.00
2015,07,04,12,25,24.10
2015,07,04,12,26,24.20
2015,07,04,12,27,24.30
2015,07,04,12,28,24.40
2015,07,04,12,29,24.50
2015,07,04,12,30,24.60
2015,07,04,12,31,24.60
2015,07,04,12,32,24.50
2015,07,04,12,33,24.50
2015,07,04,12,34,24.60
2015,07,04,12,35,24.60
2015,07,04,12,36,24.50
2015,07,04,12,37,24.50
2015,07,04,12,38,24.40
2015,07,04,12,39,24.50
2015,07,04,12,40,24.60
2015,07,04,12,41,24.60
2015,07,04,12,42,24.50
2015,07,04,12,43,24.50
2015,07,04,12,44,24.60
2015,07,04,12,45,24.60
2015,07,04,12,46,24.70
2015,07,04,12,47,24.80
2015,07,04,12,48,24.90
2015,07,04,12,49,24.90
2015,07,04,12,50,25.00
2015,07,04,12,51,24.90
2015,07,04,12,52,24.90
2015,07,04,12,53,25.00
2015,07,04,12,54,25.10
2015,07,04,12,55,25.10
2015,07,04,12,56,25.20
2015,07,04,12,57,25.10
2015,07,04,12,58,25.10
2015,07,04,12,59,25.10
2015,07,04,13,00,25.20
2015,07,04,13,01,25.30
2015,07,04,13,02,25.30
2015,07,04,13,03,25.30
2015,07,04,13,04,25.30
2015,07,04,13,05,25.40
2015,07,04,13,06,25.50
2015,07,04,13,07,25.50
2015,07,04,13,08,25.50
2015,07,04,13,09,25.50
2015,07,04,13,10,25.40
2015,07,04,13,11,25.30
2015,07,04,13,12,25.40
2015,07,04,13,13,25.50
2015,07,04,13,14,25.60
2015,07,04,13,15,25.90
2015,07,04,13,16,26.00
2015,07,04,13,17,26.10
2015,07,04,13,18,26.20
2015,07,04,13,19,26.20
2015,07,04,13,20,26.10
2015,07,04,13,21,26.20
2015,07,04,13,22,26.30
2015,07,04,13,23,26.30
2015,07,04,13,24,26.30
2015,07,04,13,25,26.30
2015,07,04,13,26,26.30
2015,07,04,13,27,26.30
2015,07,04,13,28,26.30
2015,07,04,13,29,26.30
2015,07,04,13,30,26.40
2015,07,04,13,31,26.40
2015,07,04,13,32,26.40
2015,07,04,13,33,26.30
2015,07,04,13,34,26.30
2015,07,04,13,35,26.30
2015,07,04,13,36,26.40
2015,07,04,13,37,26.40
2015,07,04,13,38,26.40
2015,07,04,13,39,26.40
2015,07,04,13,40,26.50
2015,07,04,13,41,26.50
2015,07,04,13,42,26.50
2015,07,04,13,43,26.50
2015,07,04,13,44,26.50
2015,07,04,13,45,26.50
2015,07,04,13,46,26.50
2015,07,04,13,47,26.60
2015,07,04,13,48,26.60
2015,07,04,13,49,26.60
2015,07,04,13,50,26.70
2015,07,04,13,51,26.60
2015,07,04,13,52,26.60
2015,07,04,13,53,26.60
2015,07,04,13,54,26.60
2015,07,04,13,55,26.70
2015,07,04,13,56,26.70
2015,07,04,13,57,26.70
2015,07,04,13,58,26.70
2015,07,04,13,59,26.70
2015,07,04,14,00,26.60
2015,07,04,14,01,26.50
2015,07,04,14,02,26.40
2015,07,04,14,03,26.30
2015,07,04,14,04,26.20
2015,07,04,14,05,26.20
2015,07,04,14,06,26.10
2015,07,04,14,07,26.10
2015,07,04,14,08,26.00
2015,07,04,14,09,25.90
2015,07,04,14,10,25.90
2015,07,04,14,11,25.80
2015,07,04,14,12,25.70
2015,07,04,14,13,25.60
2015,07,04,14,14,25.50
2015,07,04,14,15,25.50
2015,07,04,14,16,25.50
2015,07,04,14,17,25.50
2015,07,04,14,18,25.50
2015,07,04,14,19,25.50
2015,07,04,14,20,25.50
2015,07,04,14,21,25.50
2015,07,04,14,22,25.40
2015,07,04,14,23,25.30
2015,07,04,14,24,25.20
2015,07,04,14,25,25.10
2015,07,04,14,26,25.10
2015,07,04,14,27,25.10
2015,07,04,14,28,25.10
2015,07,04,14,29,25.20
2015,07,04,14,30,25.30
2015,07,04,14,31,25.30
2015,07,04,14,32,25.30
2015,07,04,14,33,25.20
2015,07,04,14,34,25.20
2015,07,04,14,35,25.20
2015,07,04,14,36,25.20
2015,07,04,14,37,25.20
2015,07,04,14,38,25.10
2015,07,04,14,39,25.10
2015,07,04,14,40,25.00
2015,07,04,14,41,25.00
2015,07,04,14,42,25.00
2015,07,04,14,43,25.10
2015,07,04,14,44,25.20
2015,07,04,14,45,25.20
2015,07,04,14,46,25.30
2015,07,04,14,47,25.30
2015,07,04,14,48,25.40
2015,07,04,14,49,25.40
2015,07,04,14,50,25.50
2015,07,04,14,51,25.50
2015,07,04,14,52,25.60
2015,07,04,14,53,25.80
2015,07,04,14,54,25.80
2015,07,04,14,55,25.70
2015,07,04,14,56,25.70
2015,07,04,14,57,25.70
2015,07,04,14,58,25.70
2015,07,04,14,59,25.70
2015,07,04,15,00,25.70
2015,07,04,15,01,25.70
2015,07,04,15,02,25.70
2015,07,04,15,03,25.70
2015,07,04,15,04,25.70
2015,07,04,15,05,25.60
2015,07,04,15,06,25.40
2015,07,04,15,07,25.30
2015,07,04,15,08,25.30
2015,07,04,15,09,25.40
2015,07,04,15,10,25.40
2015,07,04,15,11,25.50
2015,07,04,15,12,25.60
2015,07,04,15,13,25.50
2015,07,04,15,14,25.50
2015,07,04,15,15,25.50
2015,07,04,15,16,25.50
2015,07,04,15,17,25.50
2015,07,04,15,18,25.50
2015,07,04,15,19,25.40
2015,07,04,15,20,25.30
2015,07,04,15,21,25.30
2015,07,04,15,22,25.30
2015,07,04,15,23,25.30
2015,07,04,15,24,25.20
2015,07,04,15,25,25.20
2015,07,04,15,26,25.20
2015,07,04,15,27,25.30
2015,07,04,15,28,25.40
2015,07,04,15,29,25.50
2015,07,04,15,30,25.50
2015,07,04,15,31,25.40
2015,07,04,15,32,25.40
2015,07,04,15,33,25.40
2015,07,04,15,34,25.40
2015,07,04,15,35,25.40
2015,07,04,15,36,25.20
2015,07,04,15,37,25.10
2015,07,04,15,38,25.10
2015,07,04,15,39,25.00
2015,07,04,15,40,25.00
2015,07,04,15,41,24.90
2015,07,04,15,42,24.90
2015,07,04,15,43,24.90
2015,07,04,15,44,24.90
2015,07,04,15,45,24.90
2015,07,04,15,46,24.90
2015,07,04,15,47,25.00
2015,07,04,15,48,25.10
2015,07,04,15,49,25.20
2015,07,04,15,50,25.40
2015,07,04,15,51,25.50
2015,07,04,15,52,25.60
2015,07,04,15,53,25.60
2015,07,04,15,54,25.60
2015,07,04,15,55,25.50
2015,07,04,15,56,25.50
2015,07,04,15,57,25.50
2015,07,04,15,58,25.60
2015,07,04,15,59,25.60
2015,07,04,16,00,25.60
2015,07,04,16,01,25.60
2015,07,04,16,02,25.50
2015,07,04,16,03,25.40
2015,07,04,16,04,25.30
2015,07,04,16,05,25.10
2015,07,04,16,06,25.10
2015,07,04,16,07,25.10
2015,07,04,16,08,25.10
2015,07,04,16,09,25.10
2015,07,04,16,10,25.20
2015,07,04,16,11,25.10
2015,07,04,16,12,25.10
2015,07,04,16,13,25.10
2015,07,04,16,14,25.00
2015,07,04,16,15,24.90
2015,07,04,16,16,25.00
2015,07,04,16,17,25.10
2015,07,04,16,18,25.10
2015,07,04,16,19,25.20
2015,07,04,16,20,25.20
2015,07,04,16,21,25.30
2015,07,04,16,22,25.30
2015,07,04,16,23,25.30
2015,07,04,16,24,25.30
2015,07,04,16,25,25.20
2015,07,04,16,26,25.20
2015,07,04,16,27,25.20
2015,07,04,16,28,25.30
2015,07,04,16,29,25.40
2015,07,04,16,30,25.40
2015,07,04,16,31,25.50
2015,07,04,16,32,25.50
2015,07,04,16,33,25.40
2015,07,04,16,34,25.40
2015,07,04,16,35,25.50
2015,07,04,16,36,25.70
2015,07,04,16,37,25.90
2015,07,04,16,38,25.90
2015,07,04,16,39,25.80
2015,07,04,16,40,25.70
2015,07,04,16,41,25.70
2015,07,04,16,42,25.70
2015,07,04,16,43,25.70
2015,07,04,16,44,25.70
2015,07,04,16,45,25.70
2015,07,04,16,46,25.70
2015,07,04,16,47,25.70
2015,07,04,16,48,25.70
2015,07,04,16,49,25.70
2015,07,04,16,50,25.70
2015,07,04,16,51,25.80
2015,07,04,16,52,25.70
2015,07,04,16,53,25.70
2015,07,04,16,54,25.70
2015,07,04,16,55,25.70
2015,07,04,16,56,25.70
2015,07,04,16,57,25.80
2015,07,04,16,58,25.80
2015,07,04,16,59,25.80
2015,07,04,17,00,26.00
2015,07,04,17,01,26.10
2015,07,04,17,02,26.20
2015,07,04,17,03,26.20
2015,07,04,17,04,26.20
2015,07,04,17,05,26.20
2015,07,04,17,06,26.10
2015,07,04,17,07,26.00
2015,07,04,17,08,25.90
2015,07,04,17,09,25.90
2015,07,04,17,10,25.80
2015,07,04,17,11,25.70
2015,07,04,17,12,25.80
2015,07,04,17,13,26.00
2015,07,04,17,14,26.10
2015,07,04,17,15,26.20
2015,07,04,17,16,26.30
2015,07,04,17,17,26.30
2015,07,04,17,18,26.30
2015,07,04,17,19,26.20